[[{"header":{"parameterUnit":"m.s-1","parameterCategory":1,"la1":30.2991,"la2":30.254,"lo1":-89.0895,"lo2":-89.0444,"dy":0.0017,"dx":0.0017,"nx":28,"ny":28,"refTime":"2025-12-29T03:00:00:Z","depth":0,"parameterNumber":2,"parameterNumberName":"U-component_of_WINDS"},"data":[0,0,0,0,0,0,0,0,0,0,0,0,0,0,0,0,0,0,0,0,0,0,0,0,0,0,0,0,0,0,0,0,0,0,0,0,0,0,0,0,0,0,0,0,0,0,0,0,0,0,0,0,0,0,0,0,0,0,1.3624,1.3624,0,1.3603,1.3603,1.3602,1.358,1.3579,1.3579,1.3579,1.3556,1.3555,1.3555,0,0,0,0,0,0,0,0,0,0,0,0,0,1.3644,1.3644,1.3624,1.3624,1.3624,1.3603,1.3603,1.3602,1.358,1.3579,1.3579,1.3579,1.3556,1.3555,1.3555,0,0,0,0,0,0,0,0,0,0,0,0,0,1.3631,1.3644,1.3624,1.361,1.3608,1.3603,1.3603,1.3602,1.358,1.3579,1.3579,1.3578,1.3556,1.3555,1.3555,1.3561,0,0,1.3553,1.3553,0,0,0,0,0,0,0,0,1.3631,1.363,1.3612,1.3611,1.3609,1.3593,1.3601,1.3588,1.358,1.3591,1.3579,1.3578,1.3568,1.3567,1.3564,1.356,1.3559,1.3553,1.3553,1.3553,1.3553,0,0,0,0,0,0,0,1.3632,1.3631,1.3616,1.3612,1.361,1.3604,1.3602,1.3599,1.3582,1.359,1.3588,1.3586,1.3567,1.3564,1.3563,1.3559,1.3553,1.3553,1.3553,1.3552,1.356,1.3561,0,0,0,0,0,0,1.3636,1.3632,1.3616,1.3615,1.3619,1.3604,1.3602,1.3599,1.3582,1.3579,1.3586,1.3585,1.3565,1.3564,1.3562,1.3569,1.3553,1.3552,1.3552,1.356,1.356,1.3561,0,0,0,0,0,0,1.3636,1.3635,1.3617,1.3623,1.362,1.3605,1.3602,1.3599,1.3596,1.358,1.3577,1.3586,1.3565,1.3563,1.3562,1.3568,1.3552,1.3552,1.3559,1.356,1.3561,1.3582,0,0,0,0,0,0,1.3637,1.3635,1.3637,1.3623,1.362,1.3617,1.3602,1.3599,1.3595,1.3593,1.3579,1.3576,1.3565,1.3563,1.3562,1.3567,1.3551,1.3559,1.356,1.3561,1.3581,1.3584,1.3586,0,0,0,0,0,1.3638,1.3643,1.3637,1.3636,1.3623,1.3618,1.3616,1.3603,1.3596,1.3598,1.3588,1.3577,1.3568,1.3563,1.3561,1.3567,1.3558,1.3559,1.356,1.358,1.3583,1.3586,0,0,0,0,0,0,1.3658,1.3641,1.3634,1.3636,1.3629,1.3614,1.3616,1.3607,1.3601,1.3599,1.3583,1.358,1.3581,1.3574,1.3569,1.3572,1.3561,1.3562,1.3577,1.358,1.3582,1.3583,1.3551,0,0,0,0,0,1.3662,1.366,1.3646,1.3649,1.3645,1.3632,1.3629,1.362,1.3611,1.3608,1.3598,1.359,1.3585,1.3582,1.3577,1.3581,1.3577,1.3583,1.3586,1.3588,1.3589,1.359,1.3593,1.3565,1.3565,1.3565,0,0,1.3672,1.3663,1.3662,1.3653,1.3646,1.3644,1.3629,1.3627,1.3625,1.3607,1.3606,1.3599,1.3588,1.359,1.359,1.3584,1.3596,1.359,1.3591,1.3591,1.3592,1.3594,1.3597,1.3566,1.3565,1.3565,0,0,1.3688,1.3681,1.3682,1.3676,1.3667,1.3658,1.3658,1.3646,1.364,1.3639,1.3625,1.3623,1.3616,1.3609,1.3605,1.3621,1.361,1.3619,1.3632,1.3634,1.3636,1.3638,1.3643,1.3645,1.362,1.362,1.362,0,1.37,1.3697,1.3684,1.3684,1.368,1.3665,1.3666,1.3661,1.365,1.3648,1.3642,1.3633,1.3625,1.3625,1.3629,1.3626,1.3626,1.362,1.3637,1.3639,1.364,1.3645,1.3647,1.3621,1.3621,1.3621,1.3621,0,1.3713,1.3711,1.3713,1.3704,1.3701,1.3701,1.3689,1.3687,1.3679,1.3671,1.367,1.366,1.3653,1.3653,1.3644,1.3652,1.3648,1.364,1.3628,1.3644,1.3649,1.365,1.3623,1.3623,1.3622,1.3622,0,0,1.3738,1.3724,1.3725,1.3721,1.371,1.3708,1.3708,1.3702,1.3701,1.3694,1.3694,1.3689,1.3681,1.3677,1.3668,1.3669,1.3683,1.3661,1.366,1.3665,1.369,1.3696,1.3699,1.3676,1.3676,1.3677,1.3691,0,1.3752,1.3751,1.3741,1.3743,1.3741,1.3728,1.3728,1.3722,1.3715,1.3712,1.3704,1.3701,1.3691,1.3688,1.369,1.3681,1.3687,1.368,1.3675,1.3675,1.3677,1.3701,1.3707,1.372,1.3693,1.3693,1.3693,0,1.3767,1.3762,1.3765,1.3755,1.3753,1.3754,1.3748,1.3746,1.3738,1.3733,1.3729,1.3719,1.3719,1.3709,1.3708,1.3703,1.3701,1.3697,1.3697,1.3695,1.3684,1.3699,1.3725,1.3726,1.3696,1.3696,1.3695,0,1.3785,1.3779,1.378,1.3777,1.3766,1.3767,1.3762,1.3754,1.3751,1.3746,1.3745,1.374,1.3737,1.3733,1.3722,1.3716,1.3723,1.3712,1.3718,1.3719,1.3719,1.3719,1.3744,1.3719,1.3719,1.3719,1.3719,0,1.38,1.3802,1.3788,1.3789,1.3791,1.3779,1.3782,1.3776,1.3769,1.3768,1.3757,1.3756,1.3742,1.374,1.3732,1.3733,1.3732,1.3727,1.3725,1.3728,1.3728,1.3725,1.3724,1.372,1.372,1.372,1.372,0,1.382,1.3811,1.3811,1.3801,1.3799,1.38,1.3792,1.3792,1.3785,1.3784,1.3783,1.3772,1.3769,1.3758,1.3752,1.3747,1.375,1.3746,1.3753,1.3751,1.3757,1.3757,1.378,1.3783,1.3758,1.3758,1.3758,0,1.383,1.3831,1.3822,1.3821,1.3817,1.3815,1.3813,1.3802,1.38,1.3793,1.3794,1.379,1.3786,1.3782,1.3774,1.3769,1.3765,1.3774,1.3764,1.3767,1.3764,1.3764,1.3764,1.3775,1.3775,1.3776,1.3776,0,1.3848,1.3844,1.3841,1.3838,1.3836,1.3832,1.3827,1.3827,1.3815,1.3814,1.3811,1.3808,1.3804,1.38,1.3795,1.379,1.3781,1.3779,1.378,1.3783,1.3786,1.3784,1.3757,1.3778,1.3778,1.3778,1.3778,1.3778,1.3863,1.3864,1.3857,1.3855,1.3851,1.3848,1.3847,1.3841,1.3839,1.3834,1.3828,1.3826,1.382,1.3812,1.3808,1.3807,1.3802,1.3803,1.3803,1.3804,1.3805,1.3788,1.3806,1.3806,1.3805,1.3805,1.3805,0,1.388,1.3876,1.3874,1.3869,1.3867,1.386,1.3856,1.3854,1.3853,1.3848,1.3846,1.3843,1.384,1.3832,1.3828,1.3829,1.3824,1.3828,1.3827,1.3826,1.381,1.3809,1.3831,1.3831,1.3831,1.3831,1.3831,1.3831,1.3889,1.389,1.3885,1.3885,1.388,1.3879,1.3877,1.3874,1.387,1.3868,1.3865,1.386,1.3854,1.385,1.3848,1.3845,1.3844,1.3849,1.3845,1.383,1.3827,1.3825,1.3824,1.3849,1.3849,1.3861,1.3862,1.3862]},{"header":{"parameterUnit":"m.s-1","parameterCategory":1,"la1":30.2991,"la2":30.254,"lo1":-89.0895,"lo2":-89.0444,"dy":0.0017,"dx":0.0017,"nx":28,"ny":28,"refTime":"2025-12-29T03:00:00:Z","depth":0,"parameterNumber":3,"parameterNumberName":"V-component_of_WINDS"},"data":[0,0,0,0,0,0,0,0,0,0,0,0,0,0,0,0,0,0,0,0,0,0,0,0,0,0,0,0,0,0,0,0,0,0,0,0,0,0,0,0,0,0,0,0,0,0,0,0,0,0,0,0,0,0,0,0,0,0,-5.5597,-5.5599,0,-5.5761,-5.5763,-5.5765,-5.5704,-5.57,-5.5697,-5.5693,-5.5858,-5.5865,-5.5873,0,0,0,0,0,0,0,0,0,0,0,0,0,-5.5227,-5.5234,-5.5597,-5.5599,-5.5601,-5.5761,-5.5763,-5.5766,-5.5705,-5.57,-5.5696,-5.5691,-5.5855,-5.5865,-5.5874,0,0,0,0,0,0,0,0,0,0,0,0,0,-5.5389,-5.5237,-5.5597,-5.559,-5.5591,-5.5761,-5.5763,-5.5766,-5.5706,-5.57,-5.5694,-5.5689,-5.5852,-5.5864,-5.5875,-5.606,0,0,-5.5911,-5.5916,0,0,0,0,0,0,0,0,-5.538,-5.5403,-5.5589,-5.5591,-5.5592,-5.5707,-5.5693,-5.5865,-5.5707,-5.5662,-5.5693,-5.5686,-5.5812,-5.5827,-5.587,-5.6068,-5.6075,-5.5912,-5.592,-5.5925,-5.5928,0,0,0,0,0,0,0,-5.5369,-5.5395,-5.5662,-5.5592,-5.5594,-5.5578,-5.5595,-5.5725,-5.5766,-5.5666,-5.5662,-5.5682,-5.5812,-5.5858,-5.5873,-5.6077,-5.5912,-5.5923,-5.593,-5.5934,-5.6434,-5.644,0,0,0,0,0,0,-5.5357,-5.5386,-5.5657,-5.5667,-5.547,-5.5589,-5.5608,-5.5676,-5.5765,-5.5773,-5.5687,-5.5679,-5.5841,-5.5859,-5.5879,-5.61,-5.5925,-5.5936,-5.5942,-5.6428,-5.6435,-5.6442,0,0,0,0,0,0,-5.535,-5.5382,-5.565,-5.5526,-5.5559,-5.5601,-5.5678,-5.5682,-5.5728,-5.5781,-5.5787,-5.5727,-5.5837,-5.5862,-5.6015,-5.6105,-5.5941,-5.5952,-5.642,-5.643,-5.6438,-5.6545,0,0,0,0,0,0,-5.5339,-5.538,-5.5451,-5.5528,-5.5566,-5.5786,-5.5683,-5.5689,-5.5749,-5.574,-5.582,-5.5828,-5.5835,-5.5998,-5.6027,-5.6118,-5.5961,-5.6412,-5.6425,-5.6436,-5.6534,-5.6557,-5.6577,0,0,0,0,0,-5.5326,-5.5475,-5.5455,-5.5488,-5.5656,-5.5791,-5.5813,-5.5818,-5.5757,-5.5829,-5.5862,-5.5826,-5.609,-5.6014,-5.6046,-5.6143,-5.6407,-5.6421,-5.6435,-5.6524,-5.6552,-5.6576,0,0,0,0,0,0,-5.5407,-5.5484,-5.5464,-5.5642,-5.5711,-5.5781,-5.5871,-5.5848,-5.5935,-5.5923,-5.5924,-5.5943,-5.6101,-5.6137,-5.6051,-5.6325,-5.6239,-5.626,-5.6296,-5.6324,-5.6345,-5.6333,-5.5971,0,0,0,0,0,-5.5445,-5.555,-5.5611,-5.5762,-5.5798,-5.5829,-5.5888,-5.5886,-5.5957,-5.5985,-5.603,-5.6099,-5.6197,-5.6262,-5.6356,-5.6538,-5.6554,-5.662,-5.6642,-5.6659,-5.6677,-5.6775,-5.6805,-5.6488,-5.6487,-5.6487,0,0,-5.5526,-5.5581,-5.5647,-5.5779,-5.5833,-5.5939,-5.5854,-5.597,-5.6049,-5.6003,-5.615,-5.6186,-5.6262,-5.6431,-5.6508,-5.6466,-5.6768,-5.6677,-5.669,-5.6699,-5.6793,-5.6823,-5.6849,-5.6497,-5.6495,-5.6494,0,0,-5.5727,-5.578,-5.5911,-5.5966,-5.6047,-5.6067,-5.6098,-5.6172,-5.6194,-5.6343,-5.631,-5.6402,-5.6573,-5.6629,-5.6679,-5.6901,-5.687,-5.6931,-5.7043,-5.7139,-5.7164,-5.7186,-5.7264,-5.7293,-5.6949,-5.6949,-5.6949,0,-5.5816,-5.5977,-5.5981,-5.6101,-5.6159,-5.6123,-5.6254,-5.6307,-5.6415,-5.6456,-5.6408,-5.662,-5.6669,-5.685,-5.6904,-5.6946,-5.6981,-5.6922,-5.716,-5.7182,-5.7203,-5.7278,-5.7307,-5.6956,-5.6955,-5.6955,-5.6954,0,-5.6083,-5.6195,-5.629,-5.6396,-5.6466,-5.6591,-5.6612,-5.6682,-5.6673,-5.6698,-5.6849,-5.6906,-5.7011,-5.7053,-5.7046,-5.7233,-5.7205,-5.7159,-5.7072,-5.724,-5.731,-5.7339,-5.6966,-5.6963,-5.6961,-5.696,0,0,-5.634,-5.6446,-5.6481,-5.6528,-5.6615,-5.6701,-5.6823,-5.6926,-5.6986,-5.7061,-5.7163,-5.7307,-5.7265,-5.7323,-5.7321,-5.7406,-5.7576,-5.7349,-5.7351,-5.7389,-5.7785,-5.7819,-5.7852,-5.7556,-5.7562,-5.7566,-5.7778,0,-5.6548,-5.6765,-5.6771,-5.6969,-5.7071,-5.7038,-5.7144,-5.7208,-5.7234,-5.7323,-5.7351,-5.7453,-5.739,-5.7424,-5.7506,-5.7538,-5.7656,-5.7523,-5.765,-5.7655,-5.7632,-5.7889,-5.7926,-5.8123,-5.7805,-5.781,-5.7813,0,-5.682,-5.6904,-5.7113,-5.7184,-5.7227,-5.7323,-5.7418,-5.7504,-5.7575,-5.7588,-5.7652,-5.7638,-5.7762,-5.7671,-5.7841,-5.7751,-5.7803,-5.7826,-5.7834,-5.7846,-5.7745,-5.7907,-5.8186,-5.8215,-5.7857,-5.7853,-5.785,0,-5.6986,-5.7152,-5.7298,-5.7339,-5.7426,-5.7494,-5.7533,-5.7599,-5.766,-5.7742,-5.7782,-5.7877,-5.7929,-5.8001,-5.8013,-5.7946,-5.8183,-5.8093,-5.8196,-5.8196,-5.8248,-5.8244,-5.8538,-5.8282,-5.8281,-5.8281,-5.828,0,-5.7218,-5.7346,-5.7374,-5.7464,-5.7606,-5.7611,-5.7752,-5.7785,-5.7844,-5.7938,-5.7914,-5.8003,-5.8013,-5.8104,-5.8114,-5.8252,-5.8276,-5.8289,-5.829,-5.8291,-5.829,-5.8325,-5.8312,-5.8288,-5.8287,-5.8285,-5.8284,0,-5.7428,-5.7452,-5.7608,-5.7678,-5.7698,-5.78,-5.7859,-5.7944,-5.7966,-5.8086,-5.8115,-5.815,-5.8256,-5.8275,-5.84,-5.8406,-5.8571,-5.8558,-5.8548,-5.8546,-5.8647,-5.8638,-5.8975,-5.9019,-5.8734,-5.8736,-5.8739,0,-5.7574,-5.7673,-5.7753,-5.7815,-5.7858,-5.7958,-5.802,-5.8028,-5.8094,-5.8182,-5.8256,-5.836,-5.8444,-5.8615,-5.8651,-5.8746,-5.8734,-5.8846,-5.8749,-5.8747,-5.8736,-5.873,-5.8739,-5.8865,-5.8868,-5.887,-5.8872,0,-5.7831,-5.7838,-5.7929,-5.8025,-5.8101,-5.8176,-5.8247,-5.8299,-5.8316,-5.8391,-5.85,-5.8565,-5.8692,-5.8795,-5.889,-5.8928,-5.8903,-5.8903,-5.8931,-5.8934,-5.8924,-5.893,-5.8599,-5.8895,-5.8893,-5.8891,-5.889,-5.8889,-5.8014,-5.81,-5.8169,-5.8271,-5.8326,-5.8393,-5.8476,-5.8509,-5.8601,-5.8706,-5.8705,-5.8824,-5.8891,-5.9015,-5.906,-5.9152,-5.9116,-5.9158,-5.9168,-5.9178,-5.9188,-5.8909,-5.9169,-5.9168,-5.9168,-5.9167,-5.9167,0,-5.827,-5.8313,-5.8407,-5.8508,-5.8588,-5.8558,-5.8635,-5.8704,-5.8809,-5.8874,-5.8957,-5.9082,-5.9181,-5.9225,-5.9322,-5.9388,-5.9379,-5.9413,-5.9408,-5.9417,-5.9215,-5.918,-5.9419,-5.9419,-5.9418,-5.9418,-5.9418,-5.9418,-5.8412,-5.8555,-5.857,-5.8739,-5.878,-5.8898,-5.8944,-5.9005,-5.9057,-5.9198,-5.9281,-5.9309,-5.9365,-5.9466,-5.9555,-5.9565,-5.9602,-5.9642,-5.9647,-5.9457,-5.9432,-5.9407,-5.9375,-5.965,-5.965,-5.9842,-5.9843,-5.9845]}]]